Weather History for Ithaca, NY

Change the Weather History Date:

Sunday, October 7, 2012

  Actual Average Record
Temperature  
Mean Temperature 43 °F -  
Max Temperature 50 °F 62 °F 87 °F (1941)
Min Temperature 36 °F 40 °F 24 °F (1964)
Degree Days  
Heating Degree Days 22    
Moisture  
Dew Point 38 °F    
Average Humidity 83    
Maximum Humidity 97    
Minimum Humidity 59    
Precipitation  
Precipitation 0.00 in - - ()
Sea Level Pressure  
Sea Level Pressure 30.08 in    
Wind  
Wind Speed 3 mph (SW)    
Max Wind Speed 14 mph    
Max Gust Speed 21 mph    
Visibility 10 miles    
Events Rain    
Averages and records for this station are not official NWS values.
T = Trace of Precipitation, MM = Missing Value Source: NWS Daily Summary

Daily Weather History Graph

Daily Weather History Graph

Search for Another Location

Airport:

Trip Planner

Search our weather history database for the weather conditions in past years. The results will help you decide how hot, cold, wet, or windy it might be!

Date:

Astronomy

Oct. 07, 2012 Rise Set
Actual Time 7:10 AM EDT 6:36 PM EDT
Civil Twilight 6:42 AM EDT 7:04 PM EDT
Nautical Twilight 6:09 AM EDT 7:36 PM EDT
Astronomical Twilight 5:36 AM EDT 8:09 PM EDT
Moon 11:40 PM EDT (10/7) 1:51 PM EDT (10/7)
Length of Visible Light 12h 22m
Length of Day
11h 25m
Waning Gibbous, 56% of the Moon is Illuminated
Oct 7
Waning Gibbous
Oct 8
Last Quarter
Oct 15
New
Oct 21
First Quarter
Oct 29
Full

Hourly Weather History & Observations

Time (EDT) Temp. Windchill Dew Point Humidity Pressure Visibility Wind Dir Wind Speed Gust Speed Precip Events Conditions
12:56 AM 38.8 °F - 32.9 °F 79% 30.06 in 10.0 mi Calm Calm - N/A   Clear
1:56 AM 36.9 °F - 34.9 °F 93% 30.07 in 10.0 mi Calm Calm - N/A   Clear
2:56 AM 37.9 °F 35.5 °F 36.9 °F 96% 30.08 in 10.0 mi South 3.5 mph - N/A   Mostly Cloudy
3:56 AM 39.9 °F - 36.9 °F 89% 30.08 in 10.0 mi Calm Calm - N/A   Mostly Cloudy
4:56 AM 41.0 °F - 37.9 °F 89% 30.08 in 10.0 mi Calm Calm - N/A   Mostly Cloudy
5:56 AM 41.0 °F - 37.9 °F 89% 30.06 in 10.0 mi Calm Calm - N/A   Clear
6:23 AM 39.2 °F - 37.4 °F 93% 30.03 in 10.0 mi Calm Calm - N/A   Clear
6:56 AM 38.8 °F - 36.9 °F 93% 30.05 in 10.0 mi Calm Calm - N/A   Clear
7:56 AM 38.8 °F 36.5 °F 37.9 °F 97% 30.07 in 10.0 mi East 3.5 mph - N/A   Clear
8:56 AM 43.0 °F 41.3 °F 38.8 °F 85% 30.10 in 10.0 mi South 3.5 mph - N/A   Partly Cloudy
9:56 AM 45.0 °F 41.8 °F 38.8 °F 79% 30.12 in 10.0 mi SSW 5.8 mph - N/A   Mostly Cloudy
10:56 AM 45.9 °F 43.6 °F 36.0 °F 68% 30.12 in 10.0 mi South 4.6 mph - N/A   Overcast
11:56 AM 45.9 °F 43.6 °F 36.0 °F 68% 30.11 in 10.0 mi SSE 4.6 mph - N/A   Overcast
12:56 PM 47.8 °F - 36.9 °F 66% 30.09 in 10.0 mi Variable 4.6 mph - N/A   Mostly Cloudy
1:56 PM 50.9 °F - 36.9 °F 59% 30.06 in 10.0 mi SSW 6.9 mph - N/A   Mostly Cloudy
2:56 PM 50.9 °F - 36.9 °F 59% 30.03 in 10.0 mi South 5.8 mph - N/A   Mostly Cloudy
3:56 PM 50.0 °F - 38.8 °F 66% 30.03 in 10.0 mi South 5.8 mph - N/A   Overcast
4:56 PM 48.9 °F - 37.9 °F 66% 30.02 in 10.0 mi South 5.8 mph - N/A   Overcast
5:56 PM 46.9 °F - 37.9 °F 71% 30.04 in 10.0 mi West 5.8 mph - 0.00 in Rain Light Rain
6:56 PM 43.0 °F 38.2 °F 41.0 °F 93% 30.08 in 10.0 mi WNW 8.1 mph - 0.00 in Rain Light Rain Showers
7:56 PM 43.0 °F 40.3 °F 39.9 °F 89% 30.09 in 9.0 mi West 4.6 mph - 0.00 in Rain Light Rain
8:56 PM 43.0 °F 41.3 °F 41.0 °F 93% 30.10 in 10.0 mi SW 3.5 mph - 0.00 in Rain Light Rain
9:56 PM 41.9 °F 35.0 °F 38.8 °F 89% 30.12 in 10.0 mi West 12.7 mph 19.6 mph 0.00 in Rain Light Rain
10:08 PM 42.8 °F 37.5 °F 39.2 °F 87% 30.10 in 10.0 mi West 9.2 mph 19.6 mph 0.00 in Rain Light Rain
10:38 PM 41.0 °F 33.5 °F 37.4 °F 87% 30.10 in 10.0 mi WNW 13.8 mph - 0.00 in   Overcast
10:56 PM 41.0 °F 34.3 °F 37.9 °F 89% 30.13 in 10.0 mi WNW 11.5 mph 20.7 mph 0.00 in   Overcast
11:10 PM 41.0 °F 36.4 °F 37.4 °F 87% 30.11 in 10.0 mi West 6.9 mph - N/A   Overcast
11:23 PM 41.0 °F 37.1 °F 37.4 °F 87% 30.11 in 10.0 mi West 5.8 mph - N/A   Overcast
11:43 PM 39.2 °F - 37.4 °F 93% 30.10 in 10.0 mi Calm Calm - N/A   Mostly Cloudy
11:56 PM 37.9 °F - 36.0 °F 93% 30.14 in 10.0 mi Calm Calm - N/A   Partly Cloudy